DELTA 1 DEB, 3417

Orbit data source: Space-Track

DELTA 1 DEB, 3417 is space debris in SSO originally from a launch on Fri, 16 Aug 1968 UTC launched from the Air Force Western Test Range (AFWTR). Debris objects in space refer to the collection of defunct objects orbiting the Earth. Examples of debris include non-operational satellites, rocket bodies, and fragments generated from explosions, collisions, or faulty payload assembly.

Loading next visibility...
Identifier
3417, 1968-069D
Orbit
SSO
Last TLE update
1 day ago
Origin
Manufacturer
Unknown
Mission
Spacecraft
Bus & Motor
Unknown
Mass
Unknown
Launch date (UTC)
1968-08-16 (57 years ago)
Launch vehicle
Unknown
Launch site
Air Force Western Test Range (AFWTR)
Object type
Payload
Rocket body
Debris
Shape & HBR
Unknown
Radar Cross Section
Small (<0.1 m²)

Expand to show TLE details & history

TLE from 1 day ago
0 DELTA 1 DEB
1 03417U 68069D   25185.78178064 -.00000036  00000-0  73905-4 0  9994
2 03417 102.1422 125.8646 0066097 338.1053  92.7659 12.39770799879783
Epoch: 2025-07-04T18:45Z
TLE epoch observation values (Epoch: 2025-07-04T18:45:45.847Z)
Latitude
68.1725°
Longitude
-110.91904°
Altitude
1,522.049 km
Speed
7.109 km/s
True Right ascension
06h 14m 12s
True Declination
68° 03' 54"
Sunlit
Object was in daylight at epoch
Visualization orbit readout
Latitude
-21.96663°
Longitude
97.8362°
Altitude
1,551.015 km
Speed
7.075 km/s
Apparent Right ascension
22h 54m 06s
Apparent Declination
-48° 22' 21"
Sunlit
Object is in full shadow
Visualization observer readout
Local Sidereal Time
16:20:54
Azimuth
127.903° SE
Elevation
-33.585°
Doppler factor
1
Orbital elements
Apogee altitude
1,557.264 km
Perigee altitude
1,453.052 km
Semi-major axis
7,883.295 km
Eccentricity
0.00661
Inclination
102.1422°
RAAN
125.8646°
Arg. of periapsis
338.1053°
True anomaly
Unknown
Mean anomaly
92.7659°
Eccentric anomaly
Unknown
Mean motion
3.10086 °/min
Orbital period
116.1 mins
BSTAR
0.000073905
Loading maneuver chart data...
Loading SW <> Apogee altitude chart data...
Loading historical data...
Loading historical data...
Loading historical data...
Loading historical data...
Loading historical data...
Loading historical data...
Loading historical data...

DELTA 1 DEB Visibility forecast

Observer location: undefined°, undefined°

Span
Click to sort rows by Start time (UTC) header in descending order
Start Az.
Max El. time (UTC)
Max El. Az.
Max El.
End time (UTC)
End Az.
14 mins2025-07-06 07:49:44.152Z39.36° NE2025-07-06 07:56:44.152Z99.469° ESE28.775°2025-07-06 08:03:44.152Z156.794° SSE
15 mins2025-07-06 09:43:44.152Z7.696° NNE2025-07-06 09:50:44.152Z295.974° NW40.278°2025-07-06 09:58:44.152Z220.74° SW
5 mins2025-07-06 11:40:44.152Z331.237° NNW2025-07-06 11:42:44.152Z316.71° NNW13.384°2025-07-06 11:45:44.152Z295.34° NW
14 mins2025-07-06 18:55:44.152Z129.456° SE2025-07-06 19:01:44.152Z69.249° E37.141°2025-07-06 19:09:44.152Z352.81° N
14 mins2025-07-06 20:49:44.152Z200.493° SSW2025-07-06 20:55:44.152Z255.911° W31.387°2025-07-06 21:03:44.152Z326.513° NNW
|